FENGYUN 1C DEB *, 46990

Orbit data source: Space-Track

FENGYUN 1C DEB *, 46990 is space debris in SSO originally from a launch on Mon, 10 May 1999 UTC launched from the Taiyaun Space Center, China (TSC). Fengyun 1C debris stems from the Chinese weather satellite Fengyun-1C, which was intentionally destroyed by a Chinese anti-satellite missile in 2007. This event dramatically increased the amount of space debris, with thousands of trackable fragments posing hazards to satellites and human spaceflight. The Fengyun 1C debris cloud has become a focal point in discussions about space sustainability and the need for international regulations to prevent the creation of new debris.

Loading next visibility...
Identifier
46990, 1999-025EZQ
Orbit
SSO
Country
Flag of CNCN / PRC
Related business
Manufacturer
Unknown
Mission
Spacecraft
Bus & Motor
Unknown
Mass
Unknown
Launch date (UTC)
1999-05-10 (27 years ago)
Launch vehicle
Unknown
Launch site
Taiyaun Space Center, China (TSC)
Object type
Payload
Rocket body
Debris
Shape & HBR
Unknown shape, 0.1 m
Radar Cross Section
Small (<0.1 m²)

Expand to show TLE details & history
Last TLE update: 6 days ago

TLE from 6 days ago
0 FENGYUN 1C DEB *
1 46990U 99025EZQ 26158.78247865  .00009142  00000-0  19311-2 0  9995
2 46990  98.2233 357.9629 0333202 256.0493 162.9680 14.30198030110553
Epoch: 2026-06-07T18:46Z
TLE epoch observation values (Epoch: 2026-06-07T18:46:46.155Z)
Latitude
59.17777°
Longitude
166.14775°
Altitude
1,030.177 km
Speed
7.224 km/s
True Right ascension
22h 56m 04s
True Declination
59° 01' 54"
Sunlit
Object was in daylight at epoch
Visualization orbit readout
Latitude
Unknown
Longitude
Unknown
Altitude
Unknown
Speed
Unknown
Apparent Right ascension
Unknown
Apparent Declination
Unknown
Sunlit
N/A
Visualization observer readout
Local Sidereal Time
02:51:29
Azimuth
Unknown
Elevation
Unknown
Doppler factor
Unknown
Orbital elements
Apogee altitude
1,026.97 km
Perigee altitude
549.403 km
Semi-major axis
7,166.323 km
Eccentricity
0.03332
Inclination
98.2233°
RAAN
357.9629°
Arg. of periapsis
256.0493°
True anomaly
164.04342°
Mean anomaly
162.968°
Eccentric anomaly
163.5099°
Mean motion
3.57766 °/min
Orbital period
100.62 mins
BSTAR
0.0019311
Loading maneuver chart data...
Computing Atmospheric mass density...

Documentation

Showing up to 5 results
|